Weather History for Wisconsin Rapids, WI

Change the Weather History Date:

Monday, July 8, 2013

  Actual Average Record
Temperature  
Mean Temperature 78 °F -  
Max Temperature 87 °F 82 °F 97 °F (1948)
Min Temperature 69 °F 60 °F 44 °F (1961)
Cooling Degree Days 12    
Growing Degree Days 28 (Base 50)    
Moisture  
Dew Point 70 °F    
Average Humidity 82    
Maximum Humidity 100    
Minimum Humidity 55    
Precipitation  
Precipitation 1.13 in - - ()
Sea Level Pressure  
Sea Level Pressure 29.93 in    
Wind  
Wind Speed 8 mph (NE)    
Max Wind Speed 20 mph    
Max Gust Speed 28 mph    
Visibility 8 miles    
Events Rain    
Averages and records for this station are not official NWS values.
T = Trace of Precipitation, MM = Missing Value Source: NWS Daily Summary

Daily Weather History Graph

Daily Weather History Graph

Search for Another Location

Airport:

Trip Planner

Search our weather history database for the weather conditions in past years. The results will help you decide how hot, cold, wet, or windy it might be!

Date:

Astronomy

Jul. 08, 2013 Rise Set
Actual Time 5:23 AM CDT 8:44 PM CDT
Civil Twilight 4:47 AM CDT 9:20 PM CDT
Nautical Twilight 4:00 AM CDT 10:07 PM CDT
Astronomical Twilight 3:01 AM CDT 11:05 PM CDT
Moon 5:56 AM CDT (7/8) 8:42 PM CDT (7/8)
Length of Visible Light 16h 33m
Length of Day
15h 21m
New Moon, 0% of the Moon is Illuminated
Jul 8
New Moon
Jul 15
First Quarter
Jul 22
Full
Jul 29
Last Quarter
Aug 6
New

Hourly Weather History & Observations

Time (CDT) Temp. Heat Index Dew Point Humidity Pressure Visibility Wind Dir Wind Speed Gust Speed Precip Events Conditions
12:54 AM 78.1 °F - 70.0 °F 76% 29.88 in 10.0 mi South 6.9 mph - N/A   Scattered Clouds
1:54 AM 78.1 °F - 69.1 °F 74% 29.87 in 10.0 mi SSW 9.2 mph - N/A   Mostly Cloudy
2:54 AM 77.0 °F - 69.1 °F 76% 29.86 in 10.0 mi SSW 10.4 mph - N/A   Clear
3:54 AM 77.0 °F - 69.1 °F 76% 29.86 in 10.0 mi SSW 9.2 mph - N/A   Mostly Cloudy
4:51 AM 73.4 °F - 68.0 °F 83% 29.92 in 10.0 mi North 19.6 mph 27.6 mph N/A   Overcast
4:54 AM 73.0 °F - 68.0 °F 84% 29.91 in 7.0 mi North 19.6 mph 27.6 mph 0.03 in Rain Light Rain
4:57 AM 71.6 °F - 68.0 °F 88% 29.93 in 1.8 mi North 17.3 mph 25.3 mph 0.20 in Rain Heavy Rain
5:01 AM 71.6 °F - 69.8 °F 94% 29.92 in 0.8 mi NE 17.3 mph 25.3 mph 0.42 in Rain Heavy Rain
5:07 AM 71.6 °F - 69.8 °F 94% 29.91 in 1.0 mi NE 10.4 mph 25.3 mph 0.50 in Rain Heavy Rain
5:13 AM 71.6 °F - 69.8 °F 94% 29.91 in 1.8 mi Variable 3.5 mph 19.6 mph 0.63 in Rain Heavy Rain
5:29 AM 69.8 °F - 69.8 °F 100% 29.91 in 3.0 mi Variable 4.6 mph - 0.84 in Rain Heavy Rain
5:37 AM 69.8 °F - 69.8 °F 100% 29.93 in 1.5 mi Calm Calm - 0.95 in Rain Rain
5:43 AM 69.8 °F - 69.8 °F 100% 29.92 in 1.0 mi Calm Calm - 1.00 in Rain Heavy Rain
5:46 AM 69.8 °F - 69.8 °F 100% 29.92 in 1.2 mi Calm Calm - 1.02 in Rain Heavy Rain
5:54 AM 70.0 °F - 70.0 °F 100% 29.91 in 2.0 mi WNW 3.5 mph - 1.09 in Rain Heavy Rain
6:07 AM 69.8 °F - 69.8 °F 100% 29.91 in 8.0 mi ESE 4.6 mph - 0.01 in Rain Light Rain
6:54 AM 70.0 °F - 69.1 °F 97% 29.87 in 9.0 mi SSW 5.8 mph - 0.01 in   Partly Cloudy
7:54 AM 73.9 °F - 71.1 °F 91% 29.91 in 10.0 mi WSW 3.5 mph - N/A   Clear
8:29 AM 73.4 °F - 71.6 °F 94% 29.94 in 10.0 mi East 4.6 mph - N/A   Overcast
8:36 AM 73.4 °F - 71.6 °F 94% 29.95 in 9.0 mi East 6.9 mph - N/A   Overcast
8:54 AM 72.0 °F - 70.0 °F 93% 29.94 in 8.0 mi East 6.9 mph - N/A   Overcast
9:26 AM 73.4 °F - 71.6 °F 94% 29.96 in 10.0 mi ESE 6.9 mph - N/A   Overcast
9:43 AM 73.4 °F - 69.8 °F 88% 29.96 in 10.0 mi East 3.5 mph - N/A   Overcast
9:54 AM 73.9 °F - 71.1 °F 91% 29.94 in 10.0 mi East 4.6 mph - N/A   Overcast
10:54 AM 77.0 °F - 71.1 °F 82% 29.95 in 9.0 mi North 3.5 mph - N/A   Overcast
11:32 AM 78.8 °F - 71.6 °F 78% 29.96 in 7.0 mi NW 4.6 mph - N/A   Mostly Cloudy
11:54 AM 79.0 °F - 71.1 °F 77% 29.95 in 8.0 mi NNW 4.6 mph - N/A   Mostly Cloudy
12:12 PM 80.6 °F 84.6 °F 71.6 °F 74% 29.96 in 10.0 mi North 6.9 mph - N/A   Mostly Cloudy
12:36 PM 82.4 °F 86.3 °F 69.8 °F 66% 29.96 in 10.0 mi NNW 9.2 mph 20.7 mph N/A   Scattered Clouds
12:54 PM 82.0 °F 85.9 °F 70.0 °F 67% 29.94 in 10.0 mi NNW 9.2 mph - N/A   Clear
1:54 PM 84.9 °F 89.4 °F 70.0 °F 61% 29.94 in 10.0 mi NW 8.1 mph - N/A   Partly Cloudy
2:54 PM 86.0 °F 90.7 °F 70.0 °F 59% 29.94 in 10.0 mi North 10.4 mph - N/A   Clear
3:54 PM 84.9 °F 88.8 °F 69.1 °F 59% 29.94 in 10.0 mi NNE 8.1 mph - N/A   Partly Cloudy
4:54 PM 86.0 °F 89.4 °F 68.0 °F 55% 29.95 in 10.0 mi Variable 5.8 mph - N/A   Clear
5:54 PM 84.9 °F 88.2 °F 68.0 °F 57% 29.94 in 10.0 mi NNE 4.6 mph - N/A   Partly Cloudy
6:54 PM 84.9 °F 87.6 °F 66.9 °F 55% 29.95 in 10.0 mi Calm Calm - N/A   Clear
7:54 PM 82.0 °F 85.5 °F 69.1 °F 65% 29.96 in 10.0 mi East 5.8 mph - N/A   Clear
8:54 PM 77.0 °F - 69.1 °F 76% 29.97 in 10.0 mi SE 4.6 mph - N/A   Clear
9:54 PM 75.0 °F - 69.1 °F 82% 29.99 in 10.0 mi SE 4.6 mph - N/A   Clear
10:54 PM 72.0 °F - 69.1 °F 91% 29.99 in 10.0 mi ESE 5.8 mph - N/A   Clear
11:54 PM 73.0 °F - 68.0 °F 84% 29.99 in 10.0 mi SSE 3.5 mph - N/A   Clear